Location: Newark
(47.4417°N, 1.1394°W)
Time: 18:33:33
(UTC+00:00)

Envisat - Pass Details

Date: 20 November 2019
Orbit: 764 x 766 km, 98.1° (Epoch: 10 December)

Event Time Altitude Azimuth Distance (km) Brightness Sun altitude
Rises 18:18:33 0° 176° (S) 3,220 6.3 -19.1°
Reaches altitude 10° 18:20:53 10° 181° (S) 2,298 5.6 -19.5°
Maximum altitude 18:25:51 57° 260° (W) 902 3.6 -20.3°
Drops below altitude 10° 18:30:53 10° 339° (NNW) 2,314 5.6 -21.2°
Sets 18:33:15 0° 343° (NNW) 3,244 6.4 -21.6°
